Вернуться в каталог

COSMOS 2110

GLONASS

АктивенНавигацияMEO
NORAD 21007·PAYLOAD·🇷🇺 Russia

Запущен Dec 8, 1990 с Baikonur Cosmodrome

Loading…

Ближайшие Пролёты (ближайшие 24 часа)

TLE

СвежийSource: Space-Track

Эпоха: Sep 11, 2026, 15:17 UTC

1 21007U 90110B   26254.63727700  .00000002  00000-0  00000-0 0  9994
2 21007  64.9932  68.6077 0043038 200.4191 159.5805  2.13101425278317

Отслеживайте COSMOS 2110 в реальном времени с AllMySat

Download on the App Store